Regional Weather Roundup
Issued by NWS

Home | Current Version | Previous Version | Text Only | Print | Product List | Glossary Off
Versions: 1 2 3 4 5 6 7 8 9 10 11 12 13 14 15 16 17 18 19 20 21 22 23 24 25 26 27

000
ASUS45 KCYS 230210
RWRWY

WYOMING REGIONAL WEATHER ROUNDUP
NATIONAL WEATHER SERVICE CHEYENNE WY
800 PM MDT SAT JUL 22 2017

NOTE:  "FAIR" INDICATES FEW OR NO CLOUDS BELOW 12,000 FEET
WITH NO SIGNIFICANT WEATHER AND/OR OBSTRUCTIONS TO VISIBILITY.

WYZ001-230300-
YELLOWSTONE NATIONAL PARK

CITY           SKY/WX    TMP DP  RH WIND       PRES   REMARKS
LK YELLOWSTONE   N/A     70  35  27 VRB3      30.38S
W YELLOWSTONE  NOT AVBL

$$
WYZ002>013-054>058-071-098>099-230300-
NORTHERN WYOMING

CITY           SKY/WX    TMP DP  RH WIND       PRES   REMARKS
JACKSON        CLEAR     79  30  17 W6        30.25F
CODY           FAIR      79  36  21 N9        30.17
GREYBULL       FAIR      90  27  10 NW9       30.04S
WORLAND        FAIR      85  39  19 N6        30.05S
SHERIDAN       FAIR      79  53  40 SW3       30.10R
BUFFALO        FAIR      79  35  20 NW8       30.18R
GILLETTE       FAIR      83  33  16 N8        30.11S
HULETT         FAIR      81  34  18 NE7       30.13S
NEWCASTLE      FAIR      82  32  16 N5        30.10R

$$
WYZ014>020-022>026-101>103-230300-
CENTRAL WYOMING

CITY           SKY/WX    TMP DP  RH WIND       PRES   REMARKS
BIG PINEY      FAIR      79  28  15 N14       30.29R
PINEDALE       FAIR      77  36  22 N8        30.31S
DUBOIS         FAIR      77  30  18 NW7       30.29S
LANDER         FAIR      85  36  17 NE5       30.13R
RIVERTON       FAIR      84  28  13 NE8       30.14S
CASPER         FAIR      84  25  11 E6        30.16R
DOUGLAS        FAIR      84  40  21 NE8       30.13S

$$
WYZ021-027>030-104>119-230300-
SOUTHERN WYOMING

CITY           SKY/WX    TMP DP  RH WIND       PRES   REMARKS
EVANSTON       FAIR      82  32  16 N16       30.28S
KEMMERER         N/A    N/A N/A N/A NW9       30.31S
FORT BRIDGER   FAIR      84  25  11 NW14G22   30.30S
ROCK SPRINGS   FAIR      83  23  11 E6        30.23F
RAWLINS        FAIR      79  27  14 NE10      30.27S
SARATOGA       FAIR      77  32  19 N7        30.30R
LARAMIE        FAIR      76  35  22 VRB7      30.29S
CHEYENNE       FAIR      78  48  34 E13G22    30.22R
TORRINGTON     FAIR      81  56  42 SE10      30.06R
PINE BLUFFS    FAIR      77  43  29 SE6       30.17R

$$




USA.gov is the U.S. government's official web portal to all federal, state and local government web resources and services.